EW1549 Weather Reports


Display with metric or nautical units.
time (UTC)temp
F
wind
direction
speed
MPH
gust
MPH
rain 1hr
in
rain 24hr
in
rain mn
in
humidity
%
barometer
mb
20260509004510 62 345 3.0 6.0 0.00 0.00 0.00 71 1015.5
20260509003000 62 313 3.0 7.0 0.00 0.00 0.00 72 1015.6
20260509001559 62 4 2.0 9.0 0.00 0.00 0.00 75 1015.7
20260509000058 62 305 3.0 9.0 0.00 0.00 0.00 76 1015.7
20260508234556 62 309 1.0 4.0 0.00 0.00 0.00 73 1015.6
20260508233118 62 302 1.0 3.0 0.00 0.00 0.00 76 1015.7
20260508231557 62 343 1.0 3.0 0.00 0.00 0.00 76 1015.7
20260508230056 63 29 2.0 6.0 0.00 0.00 0.00 76 1015.7
20260508224607 63 360 4.0 10.0 0.00 0.00 0.00 76 1015.8
20260508223050 63 326 3.0 8.0 0.00 0.00 0.00 77 1015.9
20260508221549 63 355 4.0 9.0 0.00 0.00 0.00 77 1015.7
20260508220017 63 5 4.0 9.0 0.00 0.00 0.00 77 1015.6
20260508214517 64 18 5.0 11.0 0.00 0.00 0.00 79 1015.4
20260508213015 63 351 3.0 9.0 0.00 0.00 0.00 78 1015.3
20260508211522 64 352 5.0 11.0 0.00 0.00 0.00 79 1015.2
20260508210012 64 359 4.0 11.0 0.00 0.00 0.00 79 1015.1
20260508204511 64 342 3.0 8.0 0.00 0.00 0.00 78 1014.9
20260508203009 64 345 2.0 7.0 0.00 0.00 0.00 78 1014.8
20260508201507 64 353 4.0 9.0 0.00 0.00 0.00 77 1014.7
20260508200008 64 354 4.0 8.0 0.00 0.01 0.00 76 1014.6
20260508194512 64 337 3.0 11.0 0.00 0.01 0.00 76 1014.5
20260508193009 64 343 4.0 12.0 0.00 0.01 0.00 72 1014.5
20260508191509 65 334 5.0 14.0 0.00 0.01 0.00 74 1014.3
20260508190004 65 347 8.0 16.0 0.00 0.01 0.00 75 1014.2
20260508184506 65 11 7.0 13.0 0.00 0.01 0.00 77 1013.9
20260508183003 65 319 7.0 15.0 0.00 0.01 0.00 74 1013.7
20260508181502 65 356 8.0 16.0 0.00 0.01 0.00 78 1013.6
20260508180003 65 332 9.0 17.0 0.00 0.01 0.00 79 1013.7
20260508174614 66 360 6.0 11.0 0.00 0.01 0.00 76 1013.5
20260508173059 67 335 5.0 12.0 0.00 0.01 0.00 76 1013.6
20260508171558 66 304 8.0 13.0 0.00 0.01 0.00 76 1013.9
20260508170157 66 354 7.0 12.0 0.00 0.01 0.00 73 1013.7
20260508164555 66 330 8.0 14.0 0.00 0.01 0.00 72 1013.6
20260508163055 66 298 5.0 11.0 0.00 0.01 0.00 73 1013.6
20260508161556 66 351 5.0 11.0 0.00 0.01 0.00 72 1013.4
20260508160054 66 345 4.0 14.0 0.00 0.02 0.00 72 1013.6
20260508154554 66 324 7.0 13.0 0.00 0.02 0.00 70 1013.7
20260508153052 66 300 6.0 15.0 0.00 0.02 0.00 69 1013.8
20260508151557 67 333 9.0 16.0 0.00 0.02 0.00 69 1013.8
20260508150049 67 347 6.0 15.0 0.00 0.02 0.00 67 1013.8
20260508144551 67 360 6.0 13.0 0.00 0.02 0.00 68 1013.8
20260508143056 67 354 6.0 15.0 0.00 0.02 0.00 69 1013.8
20260508141546 66 308 7.0 15.0 0.00 0.02 0.00 67 1013.9
20260508140053 66 294 6.0 14.0 0.00 0.03 0.00 69 1014.0
20260508134551 66 360 5.0 12.0 0.00 0.03 0.00 70 1013.9
20260508133052 66 309 8.0 15.0 0.00 0.03 0.00 69 1014.0
20260508131547 66 329 6.0 13.0 0.00 0.03 0.00 69 1014.1
20260508130059 66 3 7.0 14.0 0.00 0.03 0.00 68 1014.0
20260508124549 66 286 6.0 14.0 0.00 0.03 0.00 68 1014.1
20260508123053 66 329 5.0 13.0 0.00 0.03 0.00 68 1014.3
20260508121544 66 345 7.0 14.0 0.00 0.03 0.00 68 1014.2
20260508120041 67 323 6.0 12.0 0.00 0.03 0.00 65 1014.2
20260508114546 66 36 5.0 13.0 0.00 0.03 0.00 64 1014.3
20260508113037 66 8 2.0 8.0 0.00 0.03 0.00 65 1014.2
20260508111535 66 334 3.0 11.0 0.00 0.03 0.00 64 1014.2
20260508110039 65 116 0.0 4.0 0.00 0.03 0.00 67 1014.4
20260508104532 64 292 5.0 12.0 0.00 0.03 0.00 66 1014.4
20260508103040 64 296 3.0 11.0 0.00 0.03 0.00 68 1014.3
20260508101538 64 335 4.0 10.0 0.00 0.03 0.00 68 1014.3
20260508100030 64 307 3.0 11.0 0.00 0.03 0.00 68 1014.4
20260508094541 64 7 3.0 8.0 0.00 0.03 0.00 67 1014.5
20260508093029 63 325 3.0 7.0 0.00 0.03 0.00 63 1014.4
20260508091541 64 311 3.0 7.0 0.00 0.03 0.00 63 1014.1
20260508090029 64 2 2.0 6.0 0.00 0.03 0.00 64 1014.0
20260508084522 62 187 1.0 6.0 0.00 0.03 0.00 78 1013.9
20260508083021 60 175 3.0 7.0 0.00 0.03 0.00 78 1013.5
20260508081530 61 227 2.0 6.0 0.00 0.03 0.00 78 1013.6
20260508080019 61 243 1.0 5.0 0.00 0.03 0.00 78 1013.7
20260508074518 60 253 3.0 6.0 0.00 0.03 0.00 79 1013.6
20260508073017 60 254 2.0 5.0 0.00 0.03 0.00 80 1013.5
20260508071522 60 239 3.0 7.0 0.00 0.03 0.00 80 1013.4
20260508070016 60 242 2.0 4.0 0.00 0.03 0.00 80 1013.1
20260508064527 60 227 2.0 5.0 0.00 0.03 0.00 81 1013.1
20260508063014 60 254 2.0 4.0 0.00 0.03 0.00 82 1012.9
20260508061519 60 216 2.0 5.0 0.00 0.03 0.00 83 1012.9
20260508060021 60 255 3.0 6.0 0.00 0.03 0.00 83 1012.7
20260508054513 60 222 2.0 6.0 0.00 0.03 0.00 84 1012.7
20260508053012 60 231 2.0 4.0 0.00 0.03 0.00 83 1012.5
20260508051510 60 205 2.0 6.0 0.00 0.03 0.00 81 1012.6
20260508050010 59 239 2.0 5.0 0.00 0.03 0.00 80 1012.5
20260508044510 59 212 3.0 5.0 0.00 0.03 0.00 81 1012.3
20260508043012 58 172 5.0 9.0 0.00 0.03 0.00 81 1012.4
20260508041506 58 175 6.0 8.0 0.00 0.03 0.00 82 1012.5
20260508040006 58 158 4.0 7.0 0.00 0.03 0.00 82 1012.6
20260508034504 59 177 3.0 6.0 0.00 0.03 0.00 81 1012.6
20260508033122 60 208 3.0 6.0 0.00 0.03 0.00 80 1012.6
20260508031559 59 261 1.0 4.0 0.00 0.03 0.00 83 1012.6
20260508030110 59 175 2.0 4.0 0.00 0.03 0.00 84 1012.7
20260508024620 59 176 3.0 4.0 0.00 0.03 0.00 84 1012.8
20260508023054 59 173 3.0 6.0 0.00 0.03 0.00 84 1012.9
20260508021552 60 178 2.0 4.0 0.00 0.03 0.00 85 1013.1
20260508020104 61 212 0.0 2.0 0.00 0.06 0.00 85 1013.3
20260508014554 64 85 0.0 3.0 0.00 0.06 0.00 82 1013.4
20260508013049 64 85 0.0 0.0 0.00 0.06 0.00 82 1013.5
20260508011545 64 85 0.0 0.0 0.00 0.06 0.00 82 1013.6
20260508010042 64 85 1.0 6.0 0.00 0.06 0.00 82 1013.7